TimeEDT,TemperatureF,Dew PointF,Humidity,Sea Level PressureIn,VisibilityMPH,Wind Direction,Wind SpeedMPH,Gust SpeedMPH,PrecipitationIn,Events,Conditions,WindDirDegrees,DateUTC
12:54 AM,32.0,19.0,59,30.24,10.0,WNW,5.8,-,N/A,,Clear,290,2013-03-28 04:54:00
1:54 AM,32.0,19.9,61,30.24,10.0,West,5.8,-,N/A,,Clear,270,2013-03-28 05:54:00
2:54 AM,32.0,19.9,61,30.22,10.0,WNW,4.6,-,N/A,,Clear,290,2013-03-28 06:54:00
3:54 AM,30.0,19.9,66,30.22,10.0,West,8.1,-,N/A,,Clear,270,2013-03-28 07:54:00
4:54 AM,28.9,19.9,69,30.21,10.0,WNW,8.1,-,N/A,,Clear,300,2013-03-28 08:54:00
5:54 AM,28.9,19.9,69,30.22,10.0,WSW,8.1,-,N/A,,Clear,250,2013-03-28 09:54:00
6:54 AM,32.0,21.0,64,30.22,10.0,West,5.8,-,N/A,,Mostly Cloudy,270,2013-03-28 10:54:00
7:54 AM,33.1,21.9,64,30.24,10.0,West,6.9,-,N/A,,Mostly Cloudy,280,2013-03-28 11:54:00
8:54 AM,37.9,23.0,55,30.26,10.0,WNW,8.1,-,N/A,,Mostly Cloudy,290,2013-03-28 12:54:00
9:54 AM,41.0,23.0,49,30.27,10.0,WNW,8.1,-,N/A,,Mostly Cloudy,290,2013-03-28 13:54:00
10:54 AM,45.0,19.9,37,30.26,10.0,WNW,11.5,19.6,N/A,,Scattered Clouds,300,2013-03-28 14:54:00
11:54 AM,46.9,19.0,33,30.25,10.0,NNW,13.8,20.7,N/A,,Scattered Clouds,330,2013-03-28 15:54:00
12:54 PM,50.0,19.0,29,30.23,10.0,NNW,6.9,-,N/A,,Partly Cloudy,340,2013-03-28 16:54:00
1:54 PM,50.0,18.0,28,30.21,10.0,NW,10.4,23.0,N/A,,Partly Cloudy,320,2013-03-28 17:54:00
2:54 PM,53.1,19.9,27,30.19,10.0,WNW,19.6,25.3,N/A,,Partly Cloudy,300,2013-03-28 18:54:00
3:54 PM,53.1,18.0,25,30.18,10.0,NNW,9.2,23.0,N/A,,Partly Cloudy,330,2013-03-28 19:54:00
4:54 PM,54.0,18.0,24,30.17,10.0,WNW,19.6,24.2,N/A,,Partly Cloudy,300,2013-03-28 20:54:00
5:54 PM,53.1,18.0,25,30.18,10.0,NW,17.3,23.0,N/A,,Partly Cloudy,320,2013-03-28 21:54:00
6:54 PM,50.0,19.9,31,30.20,10.0,WNW,13.8,-,N/A,,Partly Cloudy,290,2013-03-28 22:54:00
7:54 PM,48.0,19.9,33,30.23,10.0,NW,8.1,-,N/A,,Partly Cloudy,320,2013-03-28 23:54:00
8:54 PM,46.9,19.9,34,30.25,10.0,NNW,6.9,-,N/A,,Clear,330,2013-03-29 00:54:00
9:54 PM,42.1,21.0,43,30.27,10.0,NW,4.6,-,N/A,,Clear,310,2013-03-29 01:54:00
10:54 PM,39.0,21.9,50,30.28,10.0,Calm,Calm,-,N/A,,Clear,0,2013-03-29 02:54:00
11:54 PM,39.9,21.9,49,30.29,10.0,Calm,Calm,-,N/A,,Clear,0,2013-03-29 03:54:00